Dewpoint
55 56 58 59 60 59 61 64 65 66 68 68 68 67 67 69 70 72 71 72 73 73 74 75 75 75 75 75 75 76 75 75 75 74 73 72 71 71 70 70 69 70 69 68 68 68 69 69 69 69 69 69 68 69 69 69 69 69 70 70 70 69 68
54 55 56 58 59 60 62 64 66 66 67 67 68 68 68 69 71 71 71 72 73 73 74 74 75 75 75 75 75 75 75 75 74 74 73 72 71 71 71 70 70 70 70 69 70 70 70 69 69 69 68 69 68 69 68 69 69 69 68 69 69 69 68
54 55 57 58 59 60 63 64 66 66 66 67 67 68 68 70 71 71 71 72 73 73 74 75 75 75 75 75 75 75 75 74 74 73 72 71 70 69 70 70 70 69 69 70 70 69 70 70 70 69 68 68 67 69 68 69 69 68 69 69 69 68 68
56 56 58 60 61 63 63 63 65 64 65 66 67 68 69 71 71 72 72 72 72 73 73 74 75 75 75 75 75 75 74 74 73 73 72 71 70 70 70 70 70 70 70 69 69 69 69 70 70 70 70 69 69 68 68 67 67 68 68 69 68 68 68
56 57 57 59 59 61 62 63 64 65 65 65 67 70 70 71 71 71 72 72 72 73 73 74 74 75 75 75 74 74 73 73 72 72 72 71 71 70 69 68 68 68 69 69 70 70 70 69 69 69 69 70 68 69 68 68 68 69 68 69 68 67 66
54 57 58 58 59 60 61 61 62 63 64 65 67 69 69 69 69 69 70 72 72 72 74 74 74 75 74 74 74 73 73 73 72 72 71 71 70 69 68 69 68 68 68 69 68 68 69 69 68 67 67 66 66 66 66 67 67 67 68 69 68 67 66
55 57 58 58 59 60 60 61 61 62 64 65 66 68 67 67 68 68 69 70 71 72 73 73 74 74 74 74 74 73 73 72 71 71 70 69 69 69 69 69 69 69 68 70 69 69 68 69 68 68 67 66 67 66 67 68 67 68 68 68 68 68 67
56 56 59 59 59 59 59 61 62 62 64 66 66 66 66 67 68 68 68 69 70 70 71 71 73 74 74 74 73 73 72 72 71 70 69 69 69 69 69 69 69 70 70 69 70 70 68 69 68 68 68 66 68 69 68 69 69 67 68 68 67 67 67
55 58 57 57 58 58 59 62 63 64 67 67 68 68 67 68 67 68 68 69 70 70 70 70 72 74 74 73 73 73 72 71 70 69 68 68 67 66 66 67 69 69 69 68 67 69 69 68 68 69 69 69 69 69 69 70 69 69 68 68 68 67 66
56 58 59 58 59 58 61 63 66 68 69 69 69 69 69 68 69 68 69 69 69 69 70 71 71 72 73 73 72 72 72 70 68 67 66 64 66 64 64 64 67 68 68 68 67 68 69 68 68 69 69 68 68 69 69 69 69 68 68 68 68 67 67
57 59 60 59 60 62 63 63 66 68 69 69 69 69 70 69 69 68 69 69 69 70 70 71 72 72 72 72 70 70 70 69 68 67 66 64 64 64 64 64 64 66 66 67 66 67 67 68 68 68 68 67 67 68 68 68 68 68 67 67 67 67 66
59 60 61 61 62 63 62 65 67 68 69 69 69 69 71 71 70 69 70 70 70 70 71 71 71 71 71 70 69 69 68 68 67 65 64 64 64 64 64 64 66 65 65 66 65 65 65 67 67 67 67 67 67 68 68 68 68 68 68 67 67 67 67
58 60 61 59 62 63 66 66 67 67 69 68 68 69 69 69 69 69 70 71 70 70 71 72 72 72 71 68 68 68 67 66 66 65 64 65 65 65 64 64 63 63 63 64 64 64 63 64 66 67 67 67 67 67 67 68 67 68 68 68 68 68 68
58 58 59 62 62 63 64 66 67 68 68 68 68 69 69 69 69 70 71 70 70 70 71 71 72 71 70 68 68 67 67 67 67 66 65 66 67 66 65 65 65 65 65 66 64 63 63 63 65 65 66 67 67 67 68 68 68 68 68 68 68 68 68
55 55 58 58 62 64 65 65 66 67 67 68 68 68 68 68 69 70 71 70 71 70 71 72 72 71 69 69 69 68 67 68 68 67 67 67 67 68 67 65 65 66 66 66 65 64 64 64 64 66 66 66 67 67 67 67 68 68 68 68 69 69 68
54 54 55 57 61 62 64 65 66 67 67 68 68 68 68 69 70 69 69 69 70 71 71 73 72 71 70 69 69 68 68 68 68 69 68 67 66 66 65 65 65 66 66 66 65 66 66 66 66 65 65 66 67 67 68 68 68 66 63 64 68 68 67
55 54 55 59 62 63 64 65 66 67 67 67 68 68 68 69 69 69 67 68 69 71 72 72 72 71 70 69 69 68 68 68 68 67 66 65 65 64 64 65 66 67 67 66 66 66 67 66 65 64 65 65 65 66 67 67 67 62 60 61 62 66 66
55 57 56 58 60 62 64 64 66 66 66 66 68 69 69 69 69 69 68 69 69 70 71 71 71 70 70 69 69 68 68 68 68 67 66 66 66 65 66 66 67 67 67 67 66 67 66 65 65 65 64 64 64 64 65 66 63 59 60 60 60 62 65
56 57 58 61 62 63 62 62 64 66 66 67 67 68 68 69 69 69 70 71 71 71 71 70 70 70 69 68 68 68 68 68 68 68 68 67 67 67 67 67 66 67 67 66 67 67 65 65 64 65 64 64 64 64 64 64 62 59 58 59 59 60 62
57 57 58 58 60 60 62 64 64 65 66 68 68 66 68 69 69 70 71 71 72 71 71 71 70 69 69 68 67 68 68 68 68 68 68 67 67 67 67 67 67 67 66 66 67 67 66 65 65 65 65 65 65 65 65 66 62 58 57 57 57 58 60
59 59 58 59 61 61 64 65 66 67 67 65 65 67 68 69 69 70 70 71 71 71 71 70 70 69 69 68 68 67 67 68 68 68 66 65 66 67 67 67 67 67 67 66 67 66 66 66 66 66 65 65 64 65 65 66 60 57 56 55 55 56 58
56 56 58 59 62 64 65 64 65 65 67 67 66 66 66 68 68 68 69 70 70 71 70 70 70 69 68 67 67 67 68 68 68 67 65 64 65 65 66 66 67 67 68 68 67 67 66 66 65 65 65 65 65 64 64 64 59 57 56 55 55 57 61
54 57 61 63 62 65 67 66 66 67 68 68 67 68 67 68 68 69 69 69 69 71 69 69 69 69 68 68 67 67 67 67 67 66 66 65 65 65 65 67 67 68 68 67 67 66 65 65 65 66 65 64 65 65 65 65 61 56 55 55 55 57 63
56 59 61 62 66 64 66 66 68 69 67 69 69 69 69 69 69 70 70 69 70 69 69 68 69 69 69 68 68 67 67 67 66 67 65 65 64 65 66 67 68 68 68 66 66 65 65 65 65 66 66 64 65 63 65 65 63 56 54 54 55 58 63
56 59 61 63 64 66 67 69 69 67 69 70 69 70 71 71 70 69 70 70 68 69 69 69 69 69 69 68 68 67 67 67 67 66 65 64 64 65 66 67 67 68 68 66 66 66 67 66 65 65 66 66 65 64 64 63 62 57 55 54 54 59 63
63 63 65 67 67 69 71 71 70 69 69 70 71 70 71 70 69 69 70 70 69 69 69 70 70 70 70 69 69 68 68 67 68 67 66 65 65 65 67 68 68 67 66 66 66 66 67 67 66 66 66 66 65 64 64 63 65 65 55 53 53 55 64
63 64 64 65 68 70 71 71 72 70 70 71 71 69 70 70 70 70 71 71 70 70 70 71 71 70 70 69 68 68 68 67 67 66 65 65 65 65 66 67 67 67 67 66 67 68 68 67 67 66 66 66 65 64 64 64 65 66 58 54 52 54 57
66 67 68 69 70 69 68 67 69 68 67 70 70 70 70 71 71 70 70 70 70 71 71 71 71 70 70 68 68 67 67 67 67 67 66 65 65 66 66 67 68 67 68 67 68 67 66 67 67 66 66 66 66 66 67 67 65 65 61 56 53 52 53
68 67 67 68 67 67 67 67 67 66 67 67 68 69 70 71 70 70 69 69 70 70 70 70 70 70 69 68 68 67 67 67 67 67 66 66 66 65 66 68 68 68 68 67 67 66 66 66 66 66 67 67 67 66 66 67 67 61 64 59 54 52 51
68 67 66 65 66 67 67 67 67 66 67 66 67 68 69 70 69 69 69 69 69 68 68 69 69 69 68 68 68 67 67 67 66 67 67 67 67 66 67 68 68 68 68 67 66 66 66 67 67 66 66 66 65 64 64 65 66 63 60 62 57 52 49
68 68 68 68 68 69 69 69 69 67 67 66 67 67 68 69 69 69 69 68 67 67 68 68 68 68 67 67 67 67 67 67 67 67 67 67 67 67 68 67 67 66 67 66 67 66 66 66 66 66 66 65 64 65 64 63 63 63 62 60 59 53 49
67 68 67 68 68 68 69 68 68 68 67 66 66 66 66 67 68 68 69 67 67 67 67 67 67 67 66 66 67 67 67 67 66 67 67 67 67 67 68 66 67 66 67 67 67 67 66 66 65 64 64 64 63 63 63 62 62 63 63 61 60 57 52
67 67 68 68 68 68 69 69 68 68 68 67 66 66 66 66 66 68 67 67 67 67 67 67 67 67 66 66 66 67 66 66 65 66 68 67 67 66 65 66 67 66 66 66 66 65 65 64 64 64 64 63 62 62 62 63 63 63 61 62 61 61 60
67 67 67 68 68 69 69 70 70 69 69 67 66 66 65 66 66 65 64 64 64 65 66 67 67 66 65 65 65 65 65 65 66 66 67 66 66 67 66 66 66 65 65 65 65 64 64 64 64 62 62 62 62 62 64 64 62 61 59 59 60 60 61
66 66 67 68 69 69 70 70 70 69 69 68 66 66 65 64 63 63 64 63 63 65 65 65 65 65 64 64 64 64 65 64 65 65 65 65 63 60 60 64 64 65 63 61 64 65 64 63 62 62 61 64 63 62 62 63 62 61 51 60 53 60 60
66 66 67 67 66 67 68 68 69 68 67 67 66 66 65 64 63 63 61 62 63 64 65 65 64 64 63 63 63 62 63 63 63 65 64 63 61 57 53 47 42 49 61 57 50 47 44 44 62 64 62 61 62 62 63 60 58 46 43 43 44 45 47
65 65 65 66 66 67 67 67 68 67 67 66 66 65 65 64 63 63 62 64 64 63 65 65 65 64 63 62 61 62 64 65 66 65 65 63 61 59 56 53 50 40 42 47 48 43 39 40 41 44 48 60 61 54 46 46 42 40 40 42 42 43 44
65 65 64 65 65 66 66 67 67 67 66 66 66 65 65 63 63 64 62 64 64 64 65 65 64 64 64 64 65 65 65 65 64 63 62 62 61 60 57 56 53 51 40 40 42 40 39 38 39 39 42 44 51 56 56 45 39 39 39 39 39 39 39